Weather reports worldwide

Advertisment
Idar-Oberstein, Germany (10618): temperature & dewpoint: 16.09.2018 23:00:00 - 22.09.2018 23:00:00 (CEST)Idar-Oberstein, Germany (10618): wind speed & gusts: 16.09.2018 23:00:00 - 22.09.2018 23:00:00 (CEST)Idar-Oberstein, Germany (10618): wind direction: 16.09.2018 23:00:00 - 22.09.2018 23:00:00 (CEST)Idar-Oberstein, Germany (10618): reduced air pressure: 16.09.2018 23:00:00 - 22.09.2018 23:00:00 (CEST)Idar-Oberstein, Germany (10618): visibility: 16.09.2018 23:00:00 - 22.09.2018 23:00:00 (CEST)
Date & Time tt [°C] td [°C] ff [km/h] ff [kn] fx [km/h] fx [kn] dd ppp [hPa] vv [km]
22.09.2018 23:00:00 9,8 8,9 7 4 - - SW 1020,5 25
22.09.2018 22:00:00 9,9 9,0 4 2 - - SSW 1020,7 25
22.09.2018 21:00:00 10,0 8,8 4 2 - - N 1020,5 25
22.09.2018 20:00:00 10,6 8,4 4 2 - - S 1020,4 30
22.09.2018 19:00:00 13,3 5,6 11 6 - - WSW 1020,4 30
22.09.2018 18:00:00 13,7 6,8 11 6 - - SW 1020,1 35
22.09.2018 17:00:00 14,8 5,0 18 10 - - SW 1020,6 35
22.09.2018 16:00:00 15,3 4,7 18 10 - - WSW 1020,9 35
22.09.2018 15:00:00 15,7 4,6 22 12 - - WSW 1021,3 35
22.09.2018 14:00:00 15,3 4,9 22 12 - - SW 1021,5 35
22.09.2018 13:00:00 14,6 6,2 18 10 - - SW 1022,1 35
22.09.2018 12:00:00 13,2 6,7 14 8 - - SSW 1022,8 30
22.09.2018 11:00:00 11,1 6,0 18 10 - - SSW 1023,9 30
22.09.2018 10:00:00 9,6 5,3 14 8 - - SW 1023,5 25
22.09.2018 09:00:00 8,8 5,0 14 8 - - SSW 1023,8 25
22.09.2018 08:00:00 8,3 4,8 14 8 - - SSW 1023,7 25
22.09.2018 07:00:00 9,0 5,0 14 8 - - S 1022,7 25
22.09.2018 06:00:00 8,8 5,0 11 6 - - SW 1022,3 25
22.09.2018 05:00:00 9,7 4,9 14 8 - - SSW 1022,3 35
22.09.2018 04:00:00 9,6 4,4 11 6 - - SSW 1022,0 35
22.09.2018 03:00:00 10,2 3,9 14 8 - - SW 1021,4 35
22.09.2018 02:00:00 11,0 3,6 25 14 - - WSW 1020,6 35
22.09.2018 01:00:00 11,3 3,3 29 16 47 25 WSW 1020,0 35
22.09.2018 00:00:00 11,3 4,0 22 12 - - WSW 1019,9 35
21.09.2018 23:00:00 11,7 3,8 22 12 - - WSW 1019,2 35
21.09.2018 22:00:00 11,6 3,5 18 10 - - SW 1018,9 35
21.09.2018 21:00:00 12,0 4,0 14 8 - - SSW 1017,7 35
21.09.2018 20:00:00 12,9 5,0 14 8 - - WSW 1016,3 35
21.09.2018 19:00:00 13,6 5,6 14 8 - - WSW 1014,8 35
21.09.2018 18:00:00 14,5 9,2 22 12 - - WSW 1013,6 30
21.09.2018 17:00:00 13,8 9,8 29 16 - - WSW 1013,0 30
21.09.2018 16:00:00 12,1 10,7 18 10 - - SW 1012,5 30
21.09.2018 15:00:00 11,8 10,0 32 18 54 29 WSW 1012,1 10
21.09.2018 14:00:00 16,9 14,4 25 14 - - SW 1009,5 10
21.09.2018 13:00:00 20,2 12,2 29 16 58 31 SW 1008,3 30
21.09.2018 12:00:00 20,5 11,1 29 16 54 29 SW 1008,7 30
21.09.2018 11:00:00 19,9 11,7 22 12 - - SW 1009,0 30
21.09.2018 10:00:00 19,3 13,1 22 12 - - SW 1008,9 30
21.09.2018 09:00:00 17,5 12,9 14 8 - - SW 1009,5 25
21.09.2018 08:00:00 16,7 12,4 11 6 - - SSW 1009,3 25
21.09.2018 07:00:00 15,6 12,3 7 4 - - SW 1009,6 20
21.09.2018 06:00:00 15,1 12,4 7 4 - - SW 1010,4 25
21.09.2018 05:00:00 14,7 12,5 7 4 - - WSW 1011,3 25
21.09.2018 04:00:00 15,2 12,1 7 4 - - SW 1011,8 25
21.09.2018 03:00:00 14,2 11,9 7 4 - - W 1012,6 25
21.09.2018 02:00:00 12,6 10,9 7 4 - - W 1013,2 25
21.09.2018 01:00:00 13,5 11,4 7 4 - - WSW 1013,6 25
21.09.2018 00:00:00 14,1 11,5 4 2 - - WSW 1014,2 25
20.09.2018 23:00:00 15,2 11,8 4 2 - - W 1014,7 30
20.09.2018 22:00:00 16,6 11,7 7 4 - - SW 1014,9 35
20.09.2018 21:00:00 18,4 11,6 7 4 - - SSW 1015,0 35
20.09.2018 20:00:00 20,9 11,5 7 4 - - N 1015,0 35
20.09.2018 19:00:00 23,7 11,6 11 6 - - SW 1014,8 35
20.09.2018 18:00:00 24,7 11,1 18 10 - - SW 1015,2 35
20.09.2018 17:00:00 25,6 11,3 14 8 - - SW 1015,6 40
20.09.2018 16:00:00 25,5 11,2 18 10 - - SW 1016,3 40
20.09.2018 15:00:00 25,1 11,8 14 8 - - WSW 1016,8 40
20.09.2018 14:00:00 23,5 12,0 14 8 - - SW 1017,8 40
20.09.2018 13:00:00 23,2 12,1 18 10 - - SW 1018,4 40
20.09.2018 12:00:00 21,9 12,7 18 10 - - SW 1019,0 40
20.09.2018 11:00:00 20,2 12,9 18 10 - - SW 1019,6 40
20.09.2018 10:00:00 17,6 13,1 11 6 - - SW 1020,0 30
20.09.2018 09:00:00 13,4 12,1 7 4 - - SW 1020,7 30
20.09.2018 08:00:00 11,8 11,6 11 6 - - SW 1020,8 30
20.09.2018 07:00:00 11,8 11,2 4 2 - - SW 1020,7 20
20.09.2018 06:00:00 12,4 11,8 7 4 - - SSW 1020,8 20
20.09.2018 05:00:00 13,0 12,2 7 4 - - SW 1020,6 25
20.09.2018 04:00:00 14,3 12,8 7 4 - - SSE 1020,1 30
20.09.2018 03:00:00 15,1 13,1 7 4 - - SSE 1020,1 30
20.09.2018 02:00:00 16,1 13,5 7 4 - - SSE 1020,1 30
20.09.2018 01:00:00 17,0 13,8 7 4 - - SSE 1020,1 35
20.09.2018 00:00:00 17,6 14,3 7 4 - - SSW 1020,0 35
19.09.2018 23:00:00 18,0 14,2 7 4 - - SSW 1019,7 35
19.09.2018 22:00:00 19,3 14,2 7 4 - - S 1019,2 35
19.09.2018 21:00:00 21,0 14,2 7 4 - - SSW 1018,6 40
19.09.2018 20:00:00 22,8 14,0 7 4 - - SW 1018,0 40
19.09.2018 19:00:00 25,2 13,8 14 8 - - SW 1017,5 40
19.09.2018 18:00:00 26,2 13,5 18 10 - - WSW 1017,1 40
19.09.2018 17:00:00 26,9 13,3 18 10 - - SW 1017,0 40
19.09.2018 16:00:00 27,5 13,3 18 10 - - SW 1017,1 40
19.09.2018 15:00:00 27,1 13,2 18 10 - - SW 1017,5 40
19.09.2018 14:00:00 25,9 13,1 18 10 - - SW 1018,1 40
19.09.2018 13:00:00 25,2 13,8 14 8 - - SSW 1018,5 40
19.09.2018 12:00:00 23,5 14,3 18 10 - - SW 1019,3 40
19.09.2018 11:00:00 21,6 14,3 18 10 - - SW 1019,4 40
19.09.2018 10:00:00 17,5 12,8 7 4 - - WNW 1019,8 40
19.09.2018 09:00:00 14,1 11,9 7 4 - - WSW 1020,2 30
19.09.2018 08:00:00 13,2 11,9 4 2 - - SW 1020,0 30
19.09.2018 07:00:00 14,6 12,6 7 4 - - N 1019,3 30
19.09.2018 06:00:00 15,2 12,7 7 4 - - SSE 1019,0 40
19.09.2018 05:00:00 16,0 12,4 7 4 - - WSW 1018,8 40
19.09.2018 04:00:00 16,7 12,3 4 2 - - W 1018,5 40
19.09.2018 03:00:00 16,8 12,4 4 2 - - SSW 1018,4 40
19.09.2018 02:00:00 18,1 12,3 7 4 - - SSE 1017,6 40
19.09.2018 01:00:00 19,2 12,1 4 2 - - SSE 1017,5 40
19.09.2018 00:00:00 20,1 11,8 11 6 - - SSW 1017,0 40
18.09.2018 23:00:00 20,0 11,6 4 2 - - S 1016,6 40
18.09.2018 22:00:00 20,8 11,7 7 4 - - N 1016,3 40
18.09.2018 21:00:00 21,7 13,2 11 6 - - SW 1015,8 40
18.09.2018 20:00:00 24,1 14,4 7 4 - - SW 1014,7 40
18.09.2018 19:00:00 26,9 13,8 11 6 - - SW 1013,7 40
18.09.2018 18:00:00 26,6 14,7 14 8 - - SW 1013,8 40
18.09.2018 17:00:00 27,3 15,1 14 8 - - SW 1013,4 40
18.09.2018 16:00:00 27,6 15,0 22 12 - - SW 1013,6 40
18.09.2018 15:00:00 27,4 14,3 18 10 - - SSW 1013,8 40
18.09.2018 14:00:00 26,3 14,0 18 10 - - SW 1014,4 40
18.09.2018 13:00:00 25,1 13,5 14 8 - - SSW 1014,8 40
18.09.2018 12:00:00 23,2 12,7 14 8 - - SW 1015,3 40
18.09.2018 11:00:00 21,5 13,1 11 6 - - SW 1015,4 40
18.09.2018 10:00:00 16,2 9,4 4 2 - - W 1016,3 40
18.09.2018 09:00:00 12,2 8,7 4 2 - - SSW 1016,9 40
18.09.2018 08:00:00 8,9 7,7 4 2 - - SW 1017,3 40
18.09.2018 07:00:00 8,6 7,4 7 4 - - SW 1017,2 35
18.09.2018 06:00:00 9,2 7,7 7 4 - - SSW 1017,1 30
18.09.2018 05:00:00 10,0 7,9 7 4 - - SW 1017,0 30
18.09.2018 04:00:00 10,5 8,0 4 2 - - N 1017,1 40
18.09.2018 03:00:00 10,9 8,0 7 4 - - SW 1017,2 40
18.09.2018 02:00:00 11,4 8,0 4 2 - - WSW 1017,5 40
18.09.2018 01:00:00 12,5 7,9 4 2 - - SSW 1017,6 40
18.09.2018 00:00:00 12,6 7,9 7 4 - - SSW 1017,8 40
17.09.2018 23:00:00 13,9 7,9 4 2 - - WSW 1017,6 40
17.09.2018 22:00:00 15,0 7,9 4 2 - - N 1017,5 40
17.09.2018 21:00:00 17,8 7,5 7 4 - - SE 1017,2 40
17.09.2018 20:00:00 20,0 7,8 11 6 - - SE 1016,6 40
17.09.2018 19:00:00 25,0 5,9 7 4 - - SSW 1015,9 40
17.09.2018 18:00:00 26,1 6,7 7 4 - - N 1016,1 40
17.09.2018 17:00:00 26,0 8,1 11 6 - - SSE 1016,5 40
17.09.2018 16:00:00 26,0 8,2 7 4 - - SW 1017,1 40
17.09.2018 15:00:00 26,3 8,8 11 6 - - WSW 1017,6 40
17.09.2018 14:00:00 25,0 7,8 14 8 - - SW 1018,3 40
17.09.2018 13:00:00 24,2 8,0 7 4 - - S 1018,9 40
17.09.2018 12:00:00 21,4 11,1 4 2 - - N 1019,9 35
17.09.2018 11:00:00 18,6 10,1 4 2 - - SE 1020,7 35
17.09.2018 10:00:00 14,2 9,2 4 2 - - W 1021,3 35
17.09.2018 09:00:00 9,3 7,7 7 4 - - SW 1022,1 30
17.09.2018 08:00:00 7,5 7,2 4 2 - - W 1022,6 25
17.09.2018 07:00:00 7,2 7,0 7 4 - - SW 1022,6 20
17.09.2018 06:00:00 7,6 7,1 7 4 - - SW 1022,3 18
17.09.2018 05:00:00 8,0 7,4 7 4 - - SW 1022,1 15
17.09.2018 04:00:00 8,5 7,7 7 4 - - SSW 1022,1 15
17.09.2018 03:00:00 8,5 7,6 7 4 - - SW 1021,9 15
17.09.2018 02:00:00 10,0 8,4 7 4 - - SW 1022,0 20
17.09.2018 01:00:00 10,5 8,4 7 4 - - WSW 1022,0 25
17.09.2018 00:00:00 11,3 8,4 4 2 - - SW 1021,9 30
16.09.2018 23:00:00 13,6 8,5 4 2 - - N 1021,5 30

tt = temperature
td = dewpoint
ff = wind speed
fx = gusts
dd = wind direction
ppp = reduced air pressure
vv = visibility

Next stations